Time,TemperatureF,DewpointF,PressureIn,WindDirection,WindDirectionDegrees,WindSpeedMPH,WindSpeedGustMPH,Humidity,HourlyPrecipIn,Conditions,Clouds,dailyrainin,SoftwareType,DateUTC
2013-05-05 00:00:00,51.1,46.4,30.02,NNW,340,0.0,0.0,84,0.04,,,0.00,VWS V14.01,2013-05-05 05:00:00,
2013-05-05 00:06:00,51.1,46.4,30.02,NNW,341,0.0,0.0,84,0.04,,,0.00,VWS V14.01,2013-05-05 05:06:00,
2013-05-05 00:11:00,50.9,46.2,30.02,NNW,341,0.0,0.0,84,0.04,,,0.00,VWS V14.01,2013-05-05 05:11:00,
2013-05-05 00:17:00,50.9,46.2,30.02,NNW,341,0.0,0.0,84,0.04,,,0.00,VWS V14.01,2013-05-05 05:17:00,
2013-05-05 00:22:00,50.7,46.1,30.02,North,8,0.0,0.0,84,0.04,,,0.00,VWS V14.01,2013-05-05 05:22:00,
2013-05-05 00:28:00,50.7,46.1,30.02,North,8,0.0,0.0,84,0.00,,,0.00,VWS V14.01,2013-05-05 05:28:00,
2013-05-05 00:34:00,50.5,45.9,30.02,North,8,0.0,0.0,84,0.00,,,0.00,VWS V14.01,2013-05-05 05:34:00,
2013-05-05 00:39:00,50.5,45.9,30.02,North,8,0.0,0.0,84,0.00,,,0.00,VWS V14.01,2013-05-05 05:39:00,
2013-05-05 00:45:00,50.4,45.7,30.02,North,8,0.0,0.0,84,0.00,,,0.00,VWS V14.01,2013-05-05 05:45:00,
2013-05-05 00:51:00,50.4,45.7,30.02,North,8,0.0,0.0,84,0.00,,,0.00,VWS V14.01,2013-05-05 05:51:00,
2013-05-05 00:56:00,50.2,45.5,30.02,NE,39,0.0,0.0,84,0.00,,,0.00,VWS V14.01,2013-05-05 05:56:00,
2013-05-05 01:02:00,50.2,45.5,30.02,NE,40,0.0,0.0,84,0.00,,,0.00,VWS V14.01,2013-05-05 06:02:00,
2013-05-05 01:07:00,50.0,45.4,30.02,NE,40,0.0,0.0,84,0.00,,,0.00,VWS V14.01,2013-05-05 06:07:00,
2013-05-05 01:13:00,50.0,45.4,30.02,NE,40,0.0,0.0,84,0.00,,,0.00,VWS V14.01,2013-05-05 06:13:00,
2013-05-05 01:18:00,49.8,45.5,30.02,NE,40,0.0,0.0,85,0.00,,,0.00,VWS V14.01,2013-05-05 06:18:00,
2013-05-05 01:24:00,49.8,45.5,30.02,North,6,0.0,0.0,85,0.00,,,0.00,VWS V14.01,2013-05-05 06:24:00,
2013-05-05 01:29:00,49.6,45.3,30.02,North,6,0.0,0.0,85,0.00,,,0.00,VWS V14.01,2013-05-05 06:29:00,
2013-05-05 01:34:00,49.6,45.3,30.02,NNE,25,0.0,0.0,85,0.00,,,0.00,VWS V14.01,2013-05-05 06:34:00,
2013-05-05 01:40:00,49.5,45.2,30.02,NNE,17,4.5,4.5,85,0.00,,,0.00,VWS V14.01,2013-05-05 06:40:00,
2013-05-05 01:45:00,49.5,45.2,30.02,North,9,0.0,0.0,85,0.00,,,0.00,VWS V14.01,2013-05-05 06:45:00,
2013-05-05 01:51:00,49.3,45.0,30.02,North,7,0.0,0.0,85,0.00,,,0.00,VWS V14.01,2013-05-05 06:51:00,
2013-05-05 01:56:00,49.3,45.0,30.02,North,7,0.0,0.0,85,0.00,,,0.00,VWS V14.01,2013-05-05 06:56:00,
2013-05-05 02:02:00,49.3,45.0,30.02,NNE,19,0.0,0.0,85,0.00,,,0.00,VWS V14.01,2013-05-05 07:02:00,
2013-05-05 02:08:00,49.1,44.8,30.02,NNE,19,0.0,0.0,85,0.00,,,0.00,VWS V14.01,2013-05-05 07:08:00,
2013-05-05 02:13:00,49.1,44.8,30.02,NNE,19,0.0,0.0,85,0.00,,,0.00,VWS V14.01,2013-05-05 07:13:00,
2013-05-05 02:19:00,49.1,44.8,30.02,NE,43,0.0,0.0,85,0.00,,,0.00,VWS V14.01,2013-05-05 07:19:00,
2013-05-05 02:24:00,49.1,44.8,30.02,NE,43,0.0,0.0,85,0.00,,,0.00,VWS V14.01,2013-05-05 07:24:00,
2013-05-05 02:30:00,49.1,44.8,30.02,NE,44,0.0,0.0,85,0.00,,,0.00,VWS V14.01,2013-05-05 07:30:00,
2013-05-05 02:35:00,48.9,44.6,30.02,NE,44,0.0,0.0,85,0.00,,,0.00,VWS V14.01,2013-05-05 07:35:00,
2013-05-05 02:41:00,48.9,44.6,30.02,NE,44,0.0,0.0,85,0.00,,,0.00,VWS V14.01,2013-05-05 07:41:00,
2013-05-05 02:47:00,48.7,44.4,30.02,NNE,20,0.0,0.0,85,0.00,,,0.00,VWS V14.01,2013-05-05 07:47:00,
2013-05-05 02:52:00,48.7,44.4,30.02,NNE,20,0.0,0.0,85,0.00,,,0.00,VWS V14.01,2013-05-05 07:52:00,
2013-05-05 02:58:00,48.7,44.4,30.02,NNE,20,0.0,0.0,85,0.00,,,0.00,VWS V14.01,2013-05-05 07:58:00,
2013-05-05 03:03:00,48.6,44.3,30.02,North,5,0.0,0.0,85,0.00,,,0.00,VWS V14.01,2013-05-05 08:03:00,
2013-05-05 03:08:00,48.6,44.3,30.02,NW,314,5.4,5.4,85,0.00,,,0.00,VWS V14.01,2013-05-05 08:08:00,
2013-05-05 03:13:00,48.4,44.1,29.99,NW,314,0.0,0.0,85,0.00,,,0.00,VWS V14.01,2013-05-05 08:13:00,
2013-05-05 03:19:00,48.4,44.1,29.99,NW,314,0.0,0.0,85,0.00,,,0.00,VWS V14.01,2013-05-05 08:19:00,
2013-05-05 03:24:00,48.4,44.1,29.99,NW,314,0.0,0.0,85,0.00,,,0.00,VWS V14.01,2013-05-05 08:24:00,
2013-05-05 03:30:00,48.2,43.9,30.02,NW,314,0.0,0.0,85,0.00,,,0.00,VWS V14.01,2013-05-05 08:30:00,
2013-05-05 03:35:00,48.0,44.0,30.02,NW,314,0.0,0.0,86,0.00,,,0.00,VWS V14.01,2013-05-05 08:35:00,
2013-05-05 03:41:00,47.8,43.9,30.02,NNE,30,0.0,0.0,86,0.00,,,0.00,VWS V14.01,2013-05-05 08:41:00,
2013-05-05 03:46:00,47.8,43.9,30.02,NNE,13,0.0,0.0,86,0.00,,,0.00,VWS V14.01,2013-05-05 08:46:00,
2013-05-05 03:51:00,47.8,43.9,30.02,NNE,13,0.0,0.0,86,0.00,,,0.00,VWS V14.01,2013-05-05 08:51:00,
2013-05-05 03:57:00,47.8,43.9,30.02,NE,46,0.0,0.0,86,0.00,,,0.00,VWS V14.01,2013-05-05 08:57:00,
2013-05-05 04:02:00,47.7,43.7,30.02,NNE,22,0.0,0.0,86,0.00,,,0.00,VWS V14.01,2013-05-05 09:02:00,
2013-05-05 04:08:00,47.7,43.7,30.02,NNE,22,0.0,0.0,86,0.00,,,0.00,VWS V14.01,2013-05-05 09:08:00,
2013-05-05 04:13:00,47.8,43.9,30.02,NNE,22,0.0,0.0,86,0.00,,,0.00,VWS V14.01,2013-05-05 09:13:00,
2013-05-05 04:18:00,47.8,43.9,30.02,NNE,22,0.0,0.0,86,0.00,,,0.00,VWS V14.01,2013-05-05 09:18:00,
2013-05-05 04:23:00,47.8,43.9,30.02,NNE,22,0.0,0.0,86,0.00,,,0.00,VWS V14.01,2013-05-05 09:23:00,
2013-05-05 04:29:00,47.8,43.9,30.02,NNE,22,0.0,0.0,86,0.00,,,0.00,VWS V14.01,2013-05-05 09:29:00,
2013-05-05 04:34:00,47.8,43.9,30.02,North,1,0.0,0.0,86,0.00,,,0.00,VWS V14.01,2013-05-05 09:34:00,
2013-05-05 04:40:00,47.7,43.7,30.02,NNE,16,0.0,0.0,86,0.00,,,0.00,VWS V14.01,2013-05-05 09:40:00,
2013-05-05 04:46:00,47.7,43.7,30.02,North,11,0.0,0.0,86,0.00,,,0.00,VWS V14.01,2013-05-05 09:46:00,
2013-05-05 04:51:00,47.7,43.7,30.02,North,4,0.0,0.0,86,0.00,,,0.00,VWS V14.01,2013-05-05 09:51:00,
2013-05-05 04:57:00,47.5,43.5,30.02,North,4,0.0,0.0,86,0.00,,,0.00,VWS V14.01,2013-05-05 09:57:00,
2013-05-05 05:02:00,47.5,43.5,30.02,North,350,0.0,0.0,86,0.00,,,0.00,VWS V14.01,2013-05-05 10:02:00,
2013-05-05 05:08:00,47.5,43.8,30.02,North,350,0.0,0.0,87,0.00,,,0.00,VWS V14.01,2013-05-05 10:08:00,
2013-05-05 05:13:00,47.5,43.8,30.02,North,350,0.0,0.0,87,0.00,,,0.00,VWS V14.01,2013-05-05 10:13:00,
2013-05-05 05:19:00,47.5,43.8,30.02,North,350,0.0,0.0,87,0.00,,,0.00,VWS V14.01,2013-05-05 10:19:00,
2013-05-05 05:24:00,47.5,43.8,30.02,North,353,0.0,0.0,87,0.00,,,0.00,VWS V14.01,2013-05-05 10:24:00,
2013-05-05 05:29:00,47.5,43.8,30.02,North,353,0.0,0.0,87,0.00,,,0.00,VWS V14.01,2013-05-05 10:29:00,
2013-05-05 05:34:00,47.5,43.8,30.02,North,353,0.0,0.0,87,0.00,,,0.00,VWS V14.01,2013-05-05 10:34:00,
2013-05-05 05:40:00,47.5,43.8,30.02,North,353,0.0,0.0,87,0.00,,,0.00,VWS V14.01,2013-05-05 10:40:00,
2013-05-05 05:45:00,47.5,43.8,30.02,NNE,18,0.0,0.0,87,0.00,,,0.00,VWS V14.01,2013-05-05 10:45:00,
2013-05-05 05:50:00,47.3,43.6,30.02,NNE,18,0.0,0.0,87,0.00,,,0.00,VWS V14.01,2013-05-05 10:50:00,
2013-05-05 05:56:00,47.3,43.6,30.02,NNE,18,0.0,0.0,87,0.00,,,0.00,VWS V14.01,2013-05-05 10:56:00,
2013-05-05 06:01:00,47.3,43.6,30.02,East,93,0.0,0.0,87,0.00,,,0.00,VWS V14.01,2013-05-05 11:01:00,
2013-05-05 06:07:00,47.3,43.6,30.02,ENE,66,0.0,0.0,87,0.00,,,0.00,VWS V14.01,2013-05-05 11:07:00,
2013-05-05 06:12:00,47.3,43.6,30.02,East,80,0.0,0.0,87,0.00,,,0.00,VWS V14.01,2013-05-05 11:12:00,
2013-05-05 06:17:00,47.3,43.6,30.02,NW,311,0.0,0.0,87,0.00,,,0.00,VWS V14.01,2013-05-05 11:17:00,
2013-05-05 06:22:00,47.3,43.6,30.02,NW,311,0.0,0.0,87,0.00,,,0.00,VWS V14.01,2013-05-05 11:22:00,
2013-05-05 06:28:00,47.3,43.6,30.02,NW,311,0.0,0.0,87,0.00,,,0.00,VWS V14.01,2013-05-05 11:28:00,
2013-05-05 06:33:00,47.3,43.6,30.02,NW,311,0.0,0.0,87,0.00,,,0.00,VWS V14.01,2013-05-05 11:33:00,
2013-05-05 06:39:00,47.3,43.6,30.02,NW,311,0.0,0.0,87,0.00,,,0.00,VWS V14.01,2013-05-05 11:39:00,
2013-05-05 06:45:00,47.3,43.6,30.05,NW,311,0.0,0.0,87,0.00,,,0.00,VWS V14.01,2013-05-05 11:45:00,
2013-05-05 06:50:00,47.3,43.6,30.05,NW,311,0.0,0.0,87,0.00,,,0.00,VWS V14.01,2013-05-05 11:50:00,
2013-05-05 06:56:00,47.1,43.5,30.05,NW,311,0.0,0.0,87,0.00,,,0.00,VWS V14.01,2013-05-05 11:56:00,
2013-05-05 07:01:00,47.1,43.8,30.05,North,357,0.0,0.0,88,0.00,,,0.00,VWS V14.01,2013-05-05 12:01:00,
2013-05-05 07:07:00,47.1,43.8,30.05,North,357,0.0,0.0,88,0.00,,,0.00,VWS V14.01,2013-05-05 12:07:00,
2013-05-05 07:13:00,47.3,43.9,30.05,NE,34,0.0,0.0,88,0.00,,,0.00,VWS V14.01,2013-05-05 12:13:00,
2013-05-05 07:18:00,47.3,43.9,30.05,NE,44,0.0,0.0,88,0.00,,,0.00,VWS V14.01,2013-05-05 12:18:00,
2013-05-05 07:24:00,47.3,43.9,30.05,NE,44,0.0,0.0,88,0.00,,,0.00,VWS V14.01,2013-05-05 12:24:00,
2013-05-05 07:30:00,47.5,44.1,30.05,NNE,22,0.0,0.0,88,0.00,,,0.00,VWS V14.01,2013-05-05 12:30:00,
2013-05-05 07:35:00,47.7,44.3,30.05,WNW,291,0.0,0.0,88,0.00,,,0.00,VWS V14.01,2013-05-05 12:35:00,
2013-05-05 07:41:00,47.8,44.5,30.05,WNW,291,0.0,0.0,88,0.00,,,0.00,VWS V14.01,2013-05-05 12:41:00,
2013-05-05 07:46:00,47.8,44.5,30.05,WNW,291,0.0,0.0,88,0.00,,,0.00,VWS V14.01,2013-05-05 12:46:00,
2013-05-05 07:52:00,48.2,44.5,30.05,WNW,291,0.0,0.0,87,0.00,,,0.00,VWS V14.01,2013-05-05 12:52:00,
2013-05-05 07:58:00,48.2,44.5,30.05,WNW,291,0.0,0.0,87,0.00,,,0.00,VWS V14.01,2013-05-05 12:58:00,
2013-05-05 08:03:00,48.4,44.7,30.05,WNW,291,0.0,0.0,87,0.00,,,0.00,VWS V14.01,2013-05-05 13:03:00,
2013-05-05 08:09:00,48.9,45.2,30.05,WNW,291,0.0,0.0,87,0.00,,,0.00,VWS V14.01,2013-05-05 13:09:00,
2013-05-05 08:14:00,48.9,45.2,30.05,WNW,291,0.0,0.0,87,0.00,,,0.00,VWS V14.01,2013-05-05 13:14:00,
2013-05-05 08:20:00,48.7,45.0,30.05,North,357,0.0,0.0,87,0.00,,,0.00,VWS V14.01,2013-05-05 13:20:00,
2013-05-05 08:25:00,48.9,45.2,30.05,North,357,0.0,0.0,87,0.00,,,0.00,VWS V14.01,2013-05-05 13:25:00,
2013-05-05 08:31:00,49.5,45.8,30.05,NNW,327,0.0,0.0,87,0.00,,,0.00,VWS V14.01,2013-05-05 13:31:00,
2013-05-05 08:36:00,49.6,45.9,30.05,NNW,337,0.0,0.0,87,0.00,,,0.00,VWS V14.01,2013-05-05 13:36:00,
2013-05-05 08:41:00,49.8,46.1,30.05,NNW,338,0.0,0.0,87,0.00,,,0.00,VWS V14.01,2013-05-05 13:41:00,
2013-05-05 08:47:00,50.4,46.3,30.05,NNW,338,0.0,0.0,86,0.00,,,0.00,VWS V14.01,2013-05-05 13:47:00,
2013-05-05 08:52:00,50.7,46.7,30.05,NNW,338,0.0,0.0,86,0.00,,,0.00,VWS V14.01,2013-05-05 13:52:00,
2013-05-05 08:58:00,51.3,47.2,30.05,NNE,17,0.0,0.0,86,0.00,,,0.00,VWS V14.01,2013-05-05 13:58:00,
2013-05-05 09:03:00,50.9,46.6,30.05,WNW,302,0.0,0.0,85,0.00,,,0.00,VWS V14.01,2013-05-05 14:03:00,
2013-05-05 09:08:00,50.7,46.4,30.05,NW,324,0.0,0.0,85,0.00,,,0.00,VWS V14.01,2013-05-05 14:08:00,
2013-05-05 09:13:00,50.7,45.8,30.05,NW,325,0.0,0.0,83,0.00,,,0.00,VWS V14.01,2013-05-05 14:13:00,
2013-05-05 09:19:00,50.5,45.3,30.05,North,357,0.0,0.0,82,0.00,,,0.00,VWS V14.01,2013-05-05 14:19:00,
2013-05-05 09:24:00,50.7,45.1,30.05,NE,46,0.0,0.0,81,0.00,,,0.00,VWS V14.01,2013-05-05 14:24:00,
2013-05-05 09:30:00,50.5,44.6,30.05,NNE,19,0.0,2.2,80,0.00,,,0.00,VWS V14.01,2013-05-05 14:30:00,
2013-05-05 09:36:00,50.5,44.3,30.05,North,349,0.0,0.0,79,0.00,,,0.00,VWS V14.01,2013-05-05 14:36:00,
2013-05-05 09:42:00,50.4,44.1,30.05,North,8,0.0,0.0,79,0.00,,,0.00,VWS V14.01,2013-05-05 14:42:00,
2013-05-05 09:47:00,50.9,45.0,30.05,North,5,0.0,2.7,80,0.00,,,0.00,VWS V14.01,2013-05-05 14:47:00,
2013-05-05 09:52:00,51.4,45.2,30.05,North,357,0.0,2.7,79,0.00,,,0.00,VWS V14.01,2013-05-05 14:52:00,
2013-05-05 09:58:00,52.2,45.2,30.05,NNE,18,0.0,0.0,77,0.00,,,0.00,VWS V14.01,2013-05-05 14:58:00,
2013-05-05 10:03:00,52.9,45.5,30.05,NNE,30,0.0,0.0,76,0.00,,,0.00,VWS V14.01,2013-05-05 15:03:00,
2013-05-05 10:09:00,53.6,45.5,30.05,NW,314,0.0,0.0,74,0.00,,,0.00,VWS V14.01,2013-05-05 15:09:00,
2013-05-05 10:15:00,54.0,44.8,30.05,NNE,25,0.0,0.0,71,0.00,,,0.00,VWS V14.01,2013-05-05 15:15:00,
2013-05-05 10:20:00,53.4,44.3,30.05,North,357,4.5,4.5,71,0.00,,,0.00,VWS V14.01,2013-05-05 15:20:00,
2013-05-05 10:25:00,53.6,44.8,30.05,NNE,30,4.5,4.9,72,0.00,,,0.00,VWS V14.01,2013-05-05 15:25:00,
2013-05-05 10:30:00,54.0,44.8,30.05,NNE,17,0.0,0.0,71,0.00,,,0.00,VWS V14.01,2013-05-05 15:30:00,
2013-05-05 10:35:00,54.3,45.1,30.05,NNE,14,0.0,0.0,71,0.00,,,0.00,VWS V14.01,2013-05-05 15:35:00,
2013-05-05 10:41:00,54.7,45.1,30.05,WNW,289,0.0,2.7,70,0.00,,,0.00,VWS V14.01,2013-05-05 15:41:00,
2013-05-05 10:46:00,55.0,45.5,30.05,WNW,290,0.0,0.0,70,0.00,,,0.00,VWS V14.01,2013-05-05 15:46:00,
2013-05-05 10:51:00,55.0,44.3,30.05,NNW,327,0.0,0.0,67,0.00,,,0.00,VWS V14.01,2013-05-05 15:51:00,
2013-05-05 10:56:00,55.0,44.7,30.05,NNW,330,0.0,0.0,68,0.00,,,0.00,VWS V14.01,2013-05-05 15:56:00,
2013-05-05 11:02:00,56.1,44.9,30.05,NW,321,4.5,4.5,66,0.00,,,0.00,VWS V14.01,2013-05-05 16:02:00,
2013-05-05 11:08:00,56.8,45.2,30.05,NW,322,6.3,6.3,65,0.00,,,0.00,VWS V14.01,2013-05-05 16:08:00,
2013-05-05 11:13:00,57.6,45.1,30.05,NNW,335,0.0,0.0,63,0.00,,,0.00,VWS V14.01,2013-05-05 16:13:00,
2013-05-05 11:19:00,58.6,45.2,30.05,West,273,0.0,0.0,61,0.00,,,0.00,VWS V14.01,2013-05-05 16:19:00,
2013-05-05 11:25:00,58.6,43.9,30.05,North,0,0.0,0.0,58,0.00,,,0.00,VWS V14.01,2013-05-05 16:25:00,
2013-05-05 11:30:00,57.9,43.2,30.05,NNE,24,0.0,2.2,58,0.00,,,0.00,VWS V14.01,2013-05-05 16:30:00,
2013-05-05 11:36:00,58.5,44.2,30.05,NNE,29,4.5,4.5,59,0.00,,,0.00,VWS V14.01,2013-05-05 16:36:00,
2013-05-05 11:41:00,59.0,43.8,30.05,WNW,296,4.5,4.5,57,0.00,,,0.00,VWS V14.01,2013-05-05 16:41:00,
2013-05-05 11:47:00,58.5,42.8,30.05,NNE,32,5.4,5.4,56,0.00,,,0.00,VWS V14.01,2013-05-05 16:47:00,
2013-05-05 11:53:00,60.1,44.8,30.05,NNW,348,0.0,0.0,57,0.00,,,0.00,VWS V14.01,2013-05-05 16:53:00,
2013-05-05 11:58:00,61.3,43.1,30.05,NE,49,5.4,5.4,51,0.00,,,0.00,VWS V14.01,2013-05-05 16:58:00,
2013-05-05 12:04:00,61.5,43.2,30.05,NNW,336,6.3,6.3,51,0.00,,,0.00,VWS V14.01,2013-05-05 17:04:00,
2013-05-05 12:09:00,62.2,42.9,30.05,WNW,300,0.0,0.0,49,0.00,,,0.00,VWS V14.01,2013-05-05 17:09:00,
2013-05-05 12:15:00,63.3,43.3,30.05,North,6,5.4,5.4,48,0.00,,,0.00,VWS V14.01,2013-05-05 17:15:00,
2013-05-05 12:20:00,62.4,43.0,30.05,ENE,64,0.0,2.7,49,0.00,,,0.00,VWS V14.01,2013-05-05 17:20:00,
2013-05-05 12:26:00,63.0,42.4,30.05,NNE,26,0.0,0.0,47,0.00,,,0.00,VWS V14.01,2013-05-05 17:26:00,
2013-05-05 12:31:00,62.6,42.7,30.05,South,174,0.0,0.0,48,0.00,,,0.00,VWS V14.01,2013-05-05 17:31:00,
2013-05-05 12:36:00,61.9,43.1,30.05,NE,48,5.4,5.4,50,0.00,,,0.00,VWS V14.01,2013-05-05 17:36:00,
2013-05-05 12:42:00,62.4,43.0,30.05,East,82,5.4,5.4,49,0.00,,,0.00,VWS V14.01,2013-05-05 17:42:00,
2013-05-05 12:47:00,62.6,42.7,30.05,NNE,33,5.4,5.4,48,0.00,,,0.00,VWS V14.01,2013-05-05 17:47:00,
2013-05-05 12:53:00,62.8,43.4,30.05,NW,308,7.2,7.2,49,0.00,,,0.00,VWS V14.01,2013-05-05 17:53:00,
2013-05-05 12:58:00,63.0,43.5,30.05,NNE,16,6.3,6.3,49,0.00,,,0.00,VWS V14.01,2013-05-05 17:58:00,
2013-05-05 13:04:00,61.3,43.6,30.05,WNW,303,4.5,4.5,52,0.00,,,0.00,VWS V14.01,2013-05-05 18:04:00,
2013-05-05 13:09:00,61.7,44.9,30.05,NNE,25,0.0,2.2,54,0.00,,,0.00,VWS V14.01,2013-05-05 18:09:00,
2013-05-05 13:15:00,62.8,43.9,30.02,SE,139,0.0,0.0,50,0.00,,,0.00,VWS V14.01,2013-05-05 18:15:00,
2013-05-05 13:20:00,62.2,42.9,30.02,NNE,19,5.4,5.4,49,0.00,,,0.00,VWS V14.01,2013-05-05 18:20:00,
2013-05-05 13:25:00,62.6,44.8,30.02,NNE,16,0.0,0.0,52,0.00,,,0.00,VWS V14.01,2013-05-05 18:25:00,
2013-05-05 13:31:00,63.9,44.3,30.02,NW,311,0.0,3.6,49,0.00,,,0.00,VWS V14.01,2013-05-05 18:31:00,
2013-05-05 13:36:00,64.0,44.0,30.02,NE,47,0.0,0.0,48,0.00,,,0.00,VWS V14.01,2013-05-05 18:36:00,
2013-05-05 13:41:00,64.4,43.8,30.02,ESE,112,8.1,8.1,47,0.00,,,0.00,VWS V14.01,2013-05-05 18:41:00,
2013-05-05 13:46:00,62.8,43.4,30.02,North,10,7.2,7.2,49,0.00,,,0.00,VWS V14.01,2013-05-05 18:46:00,
2013-05-05 13:52:00,62.1,44.2,30.02,NNE,32,5.4,5.4,52,0.00,,,0.00,VWS V14.01,2013-05-05 18:52:00,
2013-05-05 13:57:00,61.9,44.6,30.02,NE,50,0.0,0.0,53,0.00,,,0.00,VWS V14.01,2013-05-05 18:57:00,
2013-05-05 14:03:00,61.7,44.4,30.02,NW,315,5.4,5.4,53,0.00,,,0.00,VWS V14.01,2013-05-05 19:03:00,
2013-05-05 14:08:00,61.2,45.4,30.02,North,0,0.0,2.7,56,0.00,,,0.00,VWS V14.01,2013-05-05 19:08:00,
2013-05-05 14:13:00,61.9,46.5,30.02,NNW,338,0.0,0.0,57,0.00,,,0.00,VWS V14.01,2013-05-05 19:13:00,
2013-05-05 14:18:00,63.0,45.6,30.02,NNE,19,8.1,8.1,53,0.00,,,0.00,VWS V14.01,2013-05-05 19:18:00,
2013-05-05 14:24:00,63.5,45.6,30.02,NE,36,4.5,4.5,52,0.00,,,0.00,VWS V14.01,2013-05-05 19:24:00,
2013-05-05 14:29:00,63.3,44.4,30.02,NNE,30,5.4,5.4,50,0.00,,,0.00,VWS V14.01,2013-05-05 19:29:00,
2013-05-05 14:34:00,63.5,45.6,30.02,NNE,28,4.5,4.5,52,0.00,,,0.00,VWS V14.01,2013-05-05 19:34:00,
2013-05-05 14:39:00,63.7,44.7,30.02,ESE,111,6.3,6.3,50,0.00,,,0.00,VWS V14.01,2013-05-05 19:39:00,
2013-05-05 14:44:00,63.1,44.2,30.02,NE,35,4.5,4.5,50,0.00,,,0.00,VWS V14.01,2013-05-05 19:44:00,
2013-05-05 14:49:00,62.8,44.9,30.02,NNE,28,8.1,8.1,52,0.00,,,0.00,VWS V14.01,2013-05-05 19:49:00,
2013-05-05 14:55:00,62.4,45.6,30.02,NNW,329,5.4,5.4,54,0.00,,,0.00,VWS V14.01,2013-05-05 19:55:00,
2013-05-05 15:00:00,62.8,45.4,29.99,NNE,18,7.2,7.2,53,0.00,,,0.00,VWS V14.01,2013-05-05 20:00:00,
2013-05-05 15:06:00,63.7,45.2,29.99,NE,50,5.4,5.4,51,0.00,,,0.00,VWS V14.01,2013-05-05 20:06:00,
2013-05-05 15:11:00,63.5,45.1,29.99,North,0,4.5,5.4,51,0.00,,,0.00,VWS V14.01,2013-05-05 20:11:00,
2013-05-05 15:17:00,64.8,45.2,29.99,NW,310,6.3,6.3,49,0.00,,,0.00,VWS V14.01,2013-05-05 20:17:00,
2013-05-05 15:22:00,65.3,45.1,29.99,NNE,33,4.5,4.5,48,0.00,,,0.00,VWS V14.01,2013-05-05 20:22:00,
2013-05-05 15:28:00,66.0,46.3,29.99,North,357,6.3,6.3,49,0.00,,,0.00,VWS V14.01,2013-05-05 20:28:00,
2013-05-05 15:34:00,65.5,44.7,29.99,NE,49,4.5,4.5,47,0.00,,,0.00,VWS V14.01,2013-05-05 20:34:00,
2013-05-05 15:40:00,65.3,45.1,29.99,NNE,20,5.4,5.4,48,0.00,,,0.00,VWS V14.01,2013-05-05 20:40:00,
2013-05-05 15:45:00,64.9,45.3,29.99,NE,56,0.0,0.0,49,0.00,,,0.00,VWS V14.01,2013-05-05 20:45:00,
2013-05-05 15:51:00,65.7,46.5,29.99,WNW,294,4.5,4.5,50,0.00,,,0.00,VWS V14.01,2013-05-05 20:51:00,
2013-05-05 15:56:00,66.0,45.2,29.99,NE,45,4.5,4.5,47,0.00,,,0.00,VWS V14.01,2013-05-05 20:56:00,
2013-05-05 16:02:00,66.0,45.2,29.99,NNE,16,5.4,5.4,47,0.00,,,0.00,VWS V14.01,2013-05-05 21:02:00,
2013-05-05 16:07:00,65.7,45.5,29.99,North,357,4.5,4.5,48,0.00,,,0.00,VWS V14.01,2013-05-05 21:07:00,
2013-05-05 16:12:00,66.4,46.1,29.99,South,184,0.0,4.9,48,0.00,,,0.00,VWS V14.01,2013-05-05 21:12:00,
2013-05-05 16:18:00,66.7,45.9,29.99,NNE,28,4.5,4.5,47,0.00,,,0.00,VWS V14.01,2013-05-05 21:18:00,
2013-05-05 16:23:00,67.8,46.3,29.99,NW,308,7.2,7.2,46,0.00,,,0.00,VWS V14.01,2013-05-05 21:23:00,
2013-05-05 16:29:00,68.4,45.6,29.99,NNE,33,0.0,3.1,44,0.00,,,0.00,VWS V14.01,2013-05-05 21:29:00,
2013-05-05 16:34:00,68.2,46.0,29.99,North,357,0.0,2.2,45,0.00,,,0.00,VWS V14.01,2013-05-05 21:34:00,
2013-05-05 16:40:00,67.6,45.6,29.99,NE,44,5.4,5.4,45,0.00,,,0.00,VWS V14.01,2013-05-05 21:40:00,
2013-05-05 16:45:00,67.6,46.1,29.99,WNW,300,6.3,6.3,46,0.00,,,0.00,VWS V14.01,2013-05-05 21:45:00,
2013-05-05 16:50:00,67.8,46.3,29.99,ENE,59,5.4,5.4,46,0.00,,,0.00,VWS V14.01,2013-05-05 21:50:00,
2013-05-05 16:55:00,67.8,46.3,29.99,North,0,0.0,0.0,46,0.00,,,0.00,VWS V14.01,2013-05-05 21:55:00,
2013-05-05 17:01:00,68.2,46.0,29.99,NNE,21,0.0,0.0,45,0.00,,,0.00,VWS V14.01,2013-05-05 22:01:00,
2013-05-05 17:06:00,68.9,46.1,29.99,NNW,331,5.4,5.4,44,0.00,,,0.00,VWS V14.01,2013-05-05 22:06:00,
2013-05-05 17:12:00,68.9,46.7,29.99,North,5,4.5,4.5,45,0.00,,,0.00,VWS V14.01,2013-05-05 22:12:00,
2013-05-05 17:18:00,68.9,46.7,29.99,WNW,290,0.0,0.0,45,0.00,,,0.00,VWS V14.01,2013-05-05 22:18:00,
2013-05-05 17:23:00,68.5,46.4,29.99,NE,34,7.2,7.2,45,0.00,,,0.00,VWS V14.01,2013-05-05 22:23:00,
2013-05-05 17:28:00,68.0,45.9,29.99,NE,54,7.2,7.2,45,0.00,,,0.00,VWS V14.01,2013-05-05 22:28:00,
2013-05-05 17:34:00,67.5,46.5,29.99,NNW,341,0.0,0.0,47,0.00,,,0.00,VWS V14.01,2013-05-05 22:34:00,
2013-05-05 17:39:00,67.3,46.4,29.99,North,10,4.5,4.5,47,0.00,,,0.00,VWS V14.01,2013-05-05 22:39:00,
2013-05-05 17:45:00,67.3,46.9,29.99,North,4,0.0,0.0,48,0.00,,,0.00,VWS V14.01,2013-05-05 22:45:00,
2013-05-05 17:51:00,67.1,46.8,29.99,NW,308,6.3,6.3,48,0.00,,,0.00,VWS V14.01,2013-05-05 22:51:00,
2013-05-05 17:56:00,67.1,46.8,29.99,NE,35,0.0,2.2,48,0.00,,,0.00,VWS V14.01,2013-05-05 22:56:00,
2013-05-05 18:02:00,66.9,46.6,29.99,NE,34,0.0,2.7,48,0.00,,,0.00,VWS V14.01,2013-05-05 23:02:00,
2013-05-05 18:07:00,66.7,47.0,29.99,NNW,345,0.0,0.0,49,0.00,,,0.00,VWS V14.01,2013-05-05 23:07:00,
2013-05-05 18:12:00,66.7,47.5,29.99,North,353,0.0,3.1,50,0.00,,,0.00,VWS V14.01,2013-05-05 23:12:00,
2013-05-05 18:18:00,66.6,47.4,29.99,NE,36,0.0,2.2,50,0.00,,,0.00,VWS V14.01,2013-05-05 23:18:00,
2013-05-05 18:23:00,66.7,48.1,29.99,WNW,297,0.0,3.1,51,0.00,,,0.00,VWS V14.01,2013-05-05 23:23:00,
2013-05-05 18:29:00,66.7,48.1,29.96,WNW,298,0.0,3.6,51,0.00,,,0.00,VWS V14.01,2013-05-05 23:29:00,
2013-05-05 18:34:00,66.6,47.9,29.96,WNW,291,0.0,0.0,51,0.00,,,0.00,VWS V14.01,2013-05-05 23:34:00,
2013-05-05 18:39:00,66.6,47.9,29.96,NNW,332,0.0,0.0,51,0.00,,,0.00,VWS V14.01,2013-05-05 23:39:00,
2013-05-05 18:44:00,66.6,48.4,29.96,WNW,287,0.0,0.0,52,0.00,,,0.00,VWS V14.01,2013-05-05 23:44:00,
2013-05-05 18:50:00,66.4,48.2,29.96,NNW,344,0.0,0.0,52,0.00,,,0.00,VWS V14.01,2013-05-05 23:50:00,
2013-05-05 18:55:00,66.2,48.6,29.96,NNW,334,0.0,0.0,53,0.00,,,0.00,VWS V14.01,2013-05-05 23:55:00,
2013-05-05 19:01:00,65.8,48.8,29.96,NE,47,0.0,2.7,54,0.00,,,0.00,VWS V14.01,2013-05-06 00:01:00,
2013-05-05 19:07:00,65.7,48.6,29.96,NW,313,5.4,5.4,54,0.00,,,0.00,VWS V14.01,2013-05-06 00:07:00,
2013-05-05 19:13:00,65.3,48.7,29.96,NE,46,5.4,5.4,55,0.00,,,0.00,VWS V14.01,2013-05-06 00:13:00,
2013-05-05 19:19:00,64.9,48.9,29.96,NNE,25,5.4,5.4,56,0.00,,,0.00,VWS V14.01,2013-05-06 00:19:00,
2013-05-05 19:24:00,64.8,49.2,29.96,North,357,5.4,5.4,57,0.00,,,0.00,VWS V14.01,2013-05-06 00:24:00,
2013-05-05 19:29:00,64.6,49.0,29.96,North,353,0.0,3.6,57,0.00,,,0.00,VWS V14.01,2013-05-06 00:29:00,
2013-05-05 19:34:00,64.4,49.3,29.96,NNW,338,0.0,0.0,58,0.00,,,0.00,VWS V14.01,2013-05-06 00:34:00,
2013-05-05 19:40:00,64.2,50.1,29.96,North,11,0.0,2.2,60,0.00,,,0.00,VWS V14.01,2013-05-06 00:40:00,
2013-05-05 19:46:00,64.0,49.9,29.96,North,11,0.0,0.0,60,0.00,,,0.00,VWS V14.01,2013-05-06 00:46:00,
2013-05-05 19:51:00,63.9,50.2,29.96,North,357,0.0,0.0,61,0.00,,,0.00,VWS V14.01,2013-05-06 00:51:00,
2013-05-05 19:57:00,63.5,50.3,29.96,North,357,0.0,0.0,62,0.00,,,0.00,VWS V14.01,2013-05-06 00:57:00,
2013-05-05 20:02:00,63.1,49.9,29.96,North,357,0.0,0.0,62,0.00,,,0.00,VWS V14.01,2013-05-06 01:02:00,
2013-05-05 20:07:00,62.8,50.4,29.96,NE,34,0.0,0.0,64,0.00,,,0.00,VWS V14.01,2013-05-06 01:07:00,
2013-05-05 20:13:00,62.6,50.7,29.96,NNE,16,0.0,0.0,65,0.00,,,0.00,VWS V14.01,2013-05-06 01:13:00,
2013-05-05 20:18:00,62.2,50.8,29.96,NNE,16,0.0,0.0,66,0.00,,,0.00,VWS V14.01,2013-05-06 01:18:00,
2013-05-05 20:24:00,61.9,50.8,29.96,NNE,16,0.0,0.0,67,0.00,,,0.00,VWS V14.01,2013-05-06 01:24:00,
2013-05-05 20:29:00,61.9,51.2,29.96,NNE,17,0.0,0.0,68,0.00,,,0.00,VWS V14.01,2013-05-06 01:29:00,
2013-05-05 20:35:00,61.9,50.8,29.96,North,353,0.0,0.0,67,0.00,,,0.00,VWS V14.01,2013-05-06 01:35:00,
2013-05-05 20:40:00,61.7,50.6,29.96,North,353,0.0,0.0,67,0.00,,,0.00,VWS V14.01,2013-05-06 01:40:00,
2013-05-05 20:46:00,61.7,51.0,29.99,NNW,345,0.0,2.2,68,0.00,,,0.00,VWS V14.01,2013-05-06 01:46:00,
2013-05-05 20:52:00,61.5,50.9,29.99,North,7,0.0,2.7,68,0.00,,,0.00,VWS V14.01,2013-05-06 01:52:00,
2013-05-05 20:57:00,61.3,51.1,29.99,North,9,6.3,6.3,69,0.00,,,0.00,VWS V14.01,2013-05-06 01:57:00,
2013-05-05 21:03:00,61.2,50.9,29.99,NNE,22,4.5,4.5,69,0.00,,,0.00,VWS V14.01,2013-05-06 02:03:00,
2013-05-05 21:08:00,61.0,50.8,29.99,North,5,6.3,6.3,69,0.00,,,0.00,VWS V14.01,2013-05-06 02:08:00,
2013-05-05 21:13:00,60.6,50.4,29.99,NNE,26,7.2,7.2,69,0.00,,,0.00,VWS V14.01,2013-05-06 02:13:00,
2013-05-05 21:18:00,60.4,50.2,29.99,WNW,297,0.0,2.7,69,0.00,,,0.00,VWS V14.01,2013-05-06 02:18:00,
2013-05-05 21:23:00,59.9,50.1,29.99,North,353,6.3,6.3,70,0.00,,,0.00,VWS V14.01,2013-05-06 02:23:00,
2013-05-05 21:29:00,59.5,49.8,29.99,NNE,23,0.0,0.0,70,0.00,,,0.00,VWS V14.01,2013-05-06 02:29:00,
2013-05-05 21:35:00,59.4,50.0,29.99,NNW,328,6.3,6.3,71,0.00,,,0.00,VWS V14.01,2013-05-06 02:35:00,
2013-05-05 21:40:00,59.0,49.6,29.99,North,10,6.3,6.3,71,0.00,,,0.00,VWS V14.01,2013-05-06 02:40:00,
2013-05-05 21:46:00,58.8,49.8,29.99,North,11,4.5,4.5,72,0.00,,,0.00,VWS V14.01,2013-05-06 02:46:00,
2013-05-05 21:51:00,58.5,49.5,29.99,NE,35,9.8,9.8,72,0.00,,,0.00,VWS V14.01,2013-05-06 02:51:00,
2013-05-05 21:56:00,58.3,49.3,29.99,North,0,0.0,2.7,72,0.00,,,0.00,VWS V14.01,2013-05-06 02:56:00,
2013-05-05 22:02:00,57.9,49.3,29.99,NNW,346,0.0,2.7,73,0.00,,,0.00,VWS V14.01,2013-05-06 03:02:00,
2013-05-05 22:07:00,57.6,49.0,29.99,North,357,4.5,4.5,73,0.00,,,0.00,VWS V14.01,2013-05-06 03:07:00,
2013-05-05 22:13:00,57.2,49.0,29.99,NW,306,6.3,6.3,74,0.00,,,0.00,VWS V14.01,2013-05-06 03:13:00,
2013-05-05 22:18:00,57.0,48.8,29.99,North,357,0.0,3.1,74,0.00,,,0.00,VWS V14.01,2013-05-06 03:18:00,
2013-05-05 22:24:00,56.8,48.7,29.99,North,357,5.4,5.4,74,0.00,,,0.00,VWS V14.01,2013-05-06 03:24:00,
2013-05-05 22:30:00,56.7,48.5,29.99,NE,37,5.4,5.4,74,0.00,,,0.00,VWS V14.01,2013-05-06 03:30:00,
2013-05-05 22:35:00,56.3,48.5,29.99,North,2,0.0,0.0,75,0.00,,,0.00,VWS V14.01,2013-05-06 03:35:00,
2013-05-05 22:41:00,56.1,48.3,29.99,NNE,12,5.4,5.4,75,0.00,,,0.00,VWS V14.01,2013-05-06 03:41:00,
2013-05-05 22:46:00,56.1,48.7,29.99,NNE,19,4.5,4.5,76,0.00,,,0.00,VWS V14.01,2013-05-06 03:46:00,
2013-05-05 22:51:00,55.9,48.5,29.99,NW,321,0.0,0.0,76,0.00,,,0.00,VWS V14.01,2013-05-06 03:51:00,
2013-05-05 22:56:00,55.8,48.3,29.99,NE,36,0.0,3.6,76,0.00,,,0.00,VWS V14.01,2013-05-06 03:56:00,
2013-05-05 23:01:00,55.6,48.2,29.99,NW,315,0.0,3.6,76,0.00,,,0.00,VWS V14.01,2013-05-06 04:01:00,
2013-05-05 23:02:00,55.6,48.2,29.99,NE,45,5.4,5.4,76,0.00,,,0.00,VWS V14.01,2013-05-06 04:02:00,
2013-05-05 23:04:00,55.4,48.0,29.99,NNW,344,0.0,2.2,76,0.00,,,0.00,VWS V14.01,2013-05-06 04:04:00,
2013-05-05 23:05:00,55.4,48.0,29.99,NNW,344,4.5,4.5,76,0.00,,,0.00,VWS V14.01,2013-05-06 04:05:00,
2013-05-05 23:06:00,55.4,48.0,29.99,North,353,4.5,4.5,76,0.00,,,0.00,VWS V14.01,2013-05-06 04:06:00,
2013-05-05 23:12:00,55.0,48.0,29.99,North,2,0.0,0.0,77,0.00,,,0.00,VWS V14.01,2013-05-06 04:12:00,
2013-05-05 23:17:00,55.0,48.0,29.99,North,11,0.0,2.7,77,0.00,,,0.00,VWS V14.01,2013-05-06 04:17:00,
2013-05-05 23:23:00,54.9,47.8,29.99,NW,309,5.4,5.4,77,0.00,,,0.00,VWS V14.01,2013-05-06 04:23:00,
2013-05-05 23:28:00,54.7,47.6,29.99,West,273,0.0,2.7,77,0.00,,,0.00,VWS V14.01,2013-05-06 04:28:00,
2013-05-05 23:34:00,54.5,47.5,29.99,North,5,0.0,0.0,77,0.00,,,0.00,VWS V14.01,2013-05-06 04:34:00,
2013-05-05 23:40:00,54.5,47.5,29.99,NE,36,6.3,6.3,77,0.00,,,0.00,VWS V14.01,2013-05-06 04:40:00,
2013-05-05 23:45:00,54.3,47.6,29.99,North,2,0.0,2.7,78,0.00,,,0.00,VWS V14.01,2013-05-06 04:45:00,
2013-05-05 23:51:00,54.1,47.4,29.99,North,6,6.3,6.3,78,0.00,,,0.00,VWS V14.01,2013-05-06 04:51:00,
2013-05-05 23:57:00,54.1,47.4,29.99,NNE,26,0.0,2.2,78,0.00,,,0.00,VWS V14.01,2013-05-06 04:57:00,